Flag for U.S.A. Weather past 2 weeks in Wichita Falls, Texas, U.S.A.

Now
90 °F

Scattered clouds.


Feels Like: 99 °F
Forecast: 75 / 96 °F
Wind: 8 mph from South

Location: Wichita Falls - Sheppard Air Force Base

Current Time: Jul 22, 2014 at 2:07:14 PM

Latest Report: Jul 22, 2014 at 11:52 AM


Visibility: 10 mi

Pressure: 30.02 "Hg

Humidity: 59%

Dew point: 74 °F

Location of Wichita FallsLocation

Historic Weather in Wichita Falls — Graph

°F

Wichita Falls temperature yesterday

Maximum temperature yesterday: 95 °F (at 3:52 PM)
Minimum temperature yesterday: 74 °F (at 4:52 AM)
Average temperature yesterday: 84 °F

Past Weeks' High & Low Weather Summary

 TemperatureHumidityPressure
High100 °F (Jul 13, 3:52 PM)100% (Jul 17, 6:59 AM)30.11 "Hg (Jul 17, 6:59 AM)
Low62 °F (Jul 19, 5:52 AM)17% (Jul 12, 5:52 PM)29.80 "Hg (Jul 7, 6:52 PM)
Average80 °F60%29.96 "Hg
* Reported Jul 7 11:52 AM — Jul 22 11:52 AM, Wichita Falls, Weather by CustomWeather, © 2014

Note: Actual official high and low records may vary slightly from our data, if they occured in-between our weather recording intervals... More about our weather records

Advertising

Wichita Falls weather history for previous 24 hours

 ConditionsComfort  
Time TempWeatherWind HumidityBarometerVisibility
11:52 AM
Jul 22
90 °FScattered clouds.8 mph59%30.02 "Hg10 mi
10:52 AM87 °FPassing clouds.12 mph67%30.04 "Hg10 mi
9:52 AM83 °FScattered clouds.6 mph77%30.03 "Hg8 mi
8:52 AM79 °FScattered clouds.8 mph84%30.04 "Hg7 mi
7:52 AM76 °FFog.5 mph91%30.02 "Hg5 mi
6:52 AM74 °FFog.6 mph94%30.00 "Hg5 mi
5:52 AM75 °FFog.5 mph88%29.98 "Hg6 mi
4:52 AM76 °FClear.3 mph85%29.96 "Hg7 mi
3:52 AM76 °FClear.5 mph85%29.95 "Hg7 mi
2:52 AM78 °FClear.9 mph79%29.95 "Hg8 mi
1:52 AM78 °FClear.9 mph82%29.96 "Hg8 mi
12:52 AM79 °FClear.7 mph79%29.98 "Hg8 mi
11:52 PM
Jul 21
81 °FClear.6 mph74%29.99 "Hg9 mi
10:52 PM83 °FClear.9 mph70%29.96 "Hg9 mi
9:52 PM83 °FClear.9 mph68%29.93 "Hg10 mi
8:52 PM86 °FSunny.9 mph61%29.91 "Hg10 mi
7:52 PM91 °FSunny.12 mph52%29.90 "Hg10 mi
6:52 PM93 °FSunny.13 mph49%29.90 "Hg10 mi
5:52 PM95 °FPassing clouds.14 mph44%29.91 "Hg10 mi
4:52 PM95 °FPassing clouds.14 mph46%29.92 "Hg10 mi
3:52 PM95 °FPassing clouds.12 mph47%29.93 "Hg10 mi
2:52 PM94 °FScattered clouds.14 mph52%29.95 "Hg10 mi
Weather by CustomWeather, © 2014

See weather overviewHow to use our weather pages